RH
34 33 33 34 33 30 27 24 21 19 18 17 15 13 13 13 14 14 13 13 13 14 15 15 15 14 14 12 12 12 12 12 12 12 12 13 14 14 14 14 14 15 15 13 12 12 12 12 12 12 12 12 12 12 11 11 11 11 12 13 15 16 16 17 18 19 21 24 26 28 29 30 30 30 30 29 28 26 25 24 24 23 22 21 20 19 18 18 17 16 15 16 17 18 20 22 23 24 25 25 25 25 25
34 33 33 32 31 30 27 24 21 19 19 18 17 16 15 15 15 15 13 12 12 13 13 14 14 14 14 12 12 11 12 12 12 12 12 13 14 14 14 14 14 14 14 13 13 13 13 13 13 13 13 14 14 14 14 13 12 11 11 12 14 15 16 16 17 18 20 21 24 26 28 29 29 29 29 29 28 27 25 24 23 23 22 21 20 19 18 17 16 16 15 15 16 17 19 21 22 24 24 25 25 25 24
34 33 31 28 28 28 27 23 21 20 20 20 20 19 19 18 19 18 15 14 13 12 13 13 12 12 11 12 11 11 11 12 12 13 13 14 14 15 16 15 14 15 14 14 14 14 14 15 15 15 15 15 16 16 15 15 15 14 13 13 14 14 15 16 16 17 18 19 21 23 26 27 28 27 27 27 27 26 24 23 22 22 22 21 21 21 19 19 18 17 17 17 18 18 19 21 22 23 24 24 24 24 23
33 31 29 27 26 26 25 23 21 21 21 22 23 23 22 23 22 20 18 16 15 14 13 12 12 11 11 11 11 11 12 12 12 13 13 14 14 15 16 16 15 15 15 15 15 16 16 16 17 17 17 18 18 18 18 17 17 16 16 16 15 15 15 16 16 16 16 17 18 21 24 25 26 26 24 24 23 22 22 21 21 21 21 21 21 21 22 22 21 20 21 19 19 19 19 20 21 23 25 25 24 24 24
31 28 26 25 25 24 23 22 22 22 22 22 23 24 24 24 23 22 20 20 19 18 17 16 15 14 13 13 13 13 13 13 13 14 14 15 15 15 16 16 16 16 16 17 17 17 18 18 18 18 19 19 19 19 19 19 19 19 18 17 17 17 17 17 17 17 17 17 17 19 22 24 25 25 24 22 21 21 20 20 19 19 20 20 21 21 22 21 21 21 22 21 20 20 20 20 21 23 26 27 26 25 26
29 27 26 25 25 25 24 24 24 23 23 23 24 24 24 24 23 23 22 22 22 21 21 20 19 18 17 17 16 16 16 16 16 16 17 17 17 17 18 18 18 18 18 18 18 19 19 19 20 20 20 20 21 21 21 21 21 21 20 19 18 18 18 18 18 18 18 18 18 19 21 23 25 25 25 23 22 22 21 21 21 21 21 20 20 20 21 21 21 21 21 21 22 21 22 23 22 22 25 27 28 29 30
29 28 27 27 27 27 27 27 26 26 26 25 25 24 24 24 24 24 24 24 24 24 23 23 22 22 21 21 20 20 20 20 20 20 20 20 20 20 20 20 20 20 20 20 21 21 21 22 22 23 23 24 24 24 24 24 24 23 23 22 21 20 20 19 19 20 20 20 20 20 21 23 24 25 26 25 25 24 24 24 24 24 23 22 21 20 19 20 20 21 22 23 23 24 25 27 28 28 26 25 26 29 32
28 28 28 28 28 28 28 28 28 28 28 28 27 27 27 26 26 26 26 26 26 26 26 26 26 26 26 25 25 25 25 25 25 24 24 24 24 24 24 24 24 24 24 24 24 25 25 25 26 26 27 27 27 27 27 27 27 26 26 25 25 24 23 22 22 22 22 22 22 22 22 23 24 26 26 27 26 25 25 25 25 24 24 24 23 22 21 21 21 22 23 24 25 25 26 28 29 29 29 27 26 27 31
27 27 28 28 28 28 28 29 29 29 29 30 30 30 29 30 29 29 29 29 29 29 29 29 29 30 30 29 30 29 30 29 29 29 29 29 29 29 29 28 28 28 28 28 28 29 29 29 29 30 30 30 30 30 30 30 29 29 29 28 28 27 27 26 26 26 25 25 25 25 25 25 26 27 28 28 28 28 27 26 26 25 25 25 25 25 25 24 24 24 24 24 26 27 28 30 31 31 31 28 27 27 29
27 28 28 28 28 29 29 29 29 30 30 31 31 31 32 32 32 32 32 32 32 32 32 33 33 33 33 33 33 33 33 33 33 33 33 33 33 33 33 33 32 32 32 32 32 32 32 32 32 32 32 32 32 32 32 32 31 31 31 31 31 30 30 30 30 30 29 29 29 29 29 29 29 30 31 31 32 32 31 30 30 29 29 29 29 29 29 29 28 28 27 26 26 27 28 29 30 31 31 29 27 26 26
29 29 29 29 29 29 29 30 30 31 32 32 33 33 34 34 34 35 35 35 35 35 35 35 35 36 36 36 36 36 36 36 36 36 36 36 36 36 35 35 35 35 35 35 35 35 35 35 35 35 35 35 35 35 35 35 35 35 35 35 35 35 35 35 35 34 34 34 34 34 34 34 34 34 34 35 36 36 36 36 35 35 35 34 34 34 33 32 32 31 30 29 27 26 26 26 27 28 31 29 27 25 25
29 29 29 29 30 30 30 31 32 33 34 34 35 35 36 36 36 36 36 36 36 36 37 37 37 37 38 38 38 38 38 38 38 38 38 38 38 37 37 37 37 37 37 37 37 37 38 37 37 37 37 37 37 38 38 38 38 38 39 39 39 39 39 39 39 39 39 40 40 39 39 39 39 39 39 39 40 41 41 41 41 41 40 40 39 39 38 36 35 34 32 30 29 27 25 24 23 24 27 27 26 25 24
28 28 29 29 29 30 30 31 32 33 34 35 36 36 37 38 37 37 37 37 37 36 37 37 37 38 38 38 39 39 39 39 39 39 39 39 39 39 39 39 39 39 39 39 39 39 39 39 39 39 39 39 39 39 40 40 40 40 41 41 41 41 41 42 42 42 43 43 43 43 43 43 43 43 42 43 43 44 44 44 43 43 43 42 42 41 40 38 37 35 34 32 30 28 26 25 24 23 25 24 25 26 25
28 28 29 29 30 30 30 30 31 31 32 33 34 35 36 36 37 37 37 37 36 36 36 37 37 37 37 38 38 38 38 38 39 39 39 39 39 39 40 40 40 40 40 40 39 39 40 40 40 40 40 40 40 40 40 40 40 40 41 41 41 41 42 42 42 43 43 44 44 45 46 46 46 46 46 46 46 46 45 44 43 43 42 41 41 40 39 38 37 36 34 33 32 30 28 27 27 26 26 25 25 25 25
29 29 30 30 31 31 31 31 30 30 29 30 30 31 32 33 33 34 34 35 35 35 36 36 36 37 37 37 37 37 37 38 38 38 39 39 39 40 39 40 40 40 40 40 40 39 39 39 40 39 39 39 39 39 39 39 39 39 40 40 40 40 41 41 42 42 43 44 45 46 46 47 47 47 46 46 45 45 43 42 41 41 40 39 39 38 37 37 36 36 36 35 34 33 32 31 30 30 29 28 27 26 26
31 31 31 32 32 32 33 32 32 31 30 30 29 29 29 29 30 30 31 31 32 33 34 34 35 35 36 36 36 37 37 37 37 38 38 38 39 39 39 39 40 40 40 39 39 39 39 39 39 39 39 39 38 38 38 38 38 38 39 39 39 39 39 40 40 40 41 43 44 45 45 45 44 44 44 43 42 41 40 39 38 38 37 37 37 37 36 37 36 36 36 37 36 36 35 35 34 33 32 32 31 30 29
33 33 33 33 32 33 33 34 34 34 33 32 32 31 31 30 30 30 30 30 31 31 32 32 32 33 33 34 34 35 35 35 36 36 36 37 37 38 38 38 39 39 39 39 39 39 39 39 38 38 38 38 38 38 38 37 37 37 37 37 37 37 37 37 38 38 39 40 41 41 41 41 40 40 39 38 38 37 37 36 36 36 36 36 36 36 36 36 36 37 37 38 38 37 37 37 37 37 36 36 35 34 33
34 34 34 34 34 34 34 35 35 35 35 35 35 35 35 34 34 34 34 34 34 33 33 33 33 33 32 32 33 33 33 33 33 33 33 34 34 35 35 36 36 36 37 37 37 37 37 36 36 36 36 36 35 35 35 35 35 35 34 35 35 34 34 34 34 34 35 36 36 36 36 36 35 35 35 35 34 34 34 34 34 35 35 35 36 36 36 36 37 37 38 38 38 38 38 38 39 39 40 39 39 38 37
36 36 35 35 35 35 35 35 35 36 36 37 37 38 38 39 39 39 39 39 39 38 38 37 37 37 37 36 36 35 35 34 34 34 33 33 33 33 33 33 33 33 33 33 33 33 32 32 32 32 32 31 31 31 31 31 30 30 30 31 30 30 30 29 30 30 31 32 32 32 32 32 32 32 32 33 33 33 34 34 34 35 35 36 36 37 37 37 38 38 40 41 41 42 41 42 42 42 43 43 43 42 42
37 37 36 36 36 36 36 36 37 37 38 38 39 39 40 41 41 41 42 42 41 41 41 41 41 41 41 40 40 40 39 38 38 37 37 36 35 34 34 34 33 33 32 31 31 30 29 29 29 28 28 28 28 28 28 27 27 27 27 27 27 27 27 27 27 28 29 30 30 30 30 31 31 31 31 32 32 33 33 34 35 35 36 36 37 37 38 38 39 41 43 45 45 45 46 46 46 46 47 47 47 47 47
37 37 37 37 37 37 37 38 39 39 40 40 40 40 40 40 41 41 42 42 42 42 42 42 42 42 42 42 42 41 41 40 40 39 38 37 37 36 35 34 34 33 32 32 31 30 29 29 28 28 28 28 28 27 27 27 27 26 27 27 27 26 26 27 27 28 29 29 29 29 29 30 30 30 31 32 32 33 33 34 35 35 36 36 37 38 39 39 41 43 45 47 47 48 48 48 48 49 50 50 51 51 51
38 38 38 38 38 38 39 40 40 41 42 42 41 41 41 40 40 40 41 41 41 42 42 42 42 42 42 42 42 41 41 40 40 39 38 37 36 35 34 33 32 31 31 30 30 29 29 29 28 28 29 29 28 28 28 28 27 27 27 28 27 28 28 28 28 28 29 29 29 29 29 29 30 30 31 32 32 33 34 34 34 35 36 36 37 38 39 41 43 46 46 47 47 47 47 47 47 47 48 49 49 49 50
39 40 40 41 41 41 41 42 42 43 43 43 42 42 41 40 40 40 41 41 42 42 42 42 42 42 42 42 41 41 40 39 39 37 36 35 34 33 32 31 30 29 28 28 28 27 28 28 28 28 29 29 29 29 29 29 29 29 29 29 30 30 30 30 29 29 29 30 30 30 30 31 31 32 33 33 33 33 34 34 35 36 36 37 38 39 39 41 43 45 46 46 46 46 45 45 44 44 44 45 45 46 46
42 42 44 44 44 44 44 44 44 44 44 43 43 42 41 41 41 41 42 42 42 43 43 42 42 41 41 41 40 40 39 38 37 36 34 33 32 30 29 28 27 27 26 26 26 27 27 28 28 29 29 30 30 31 31 31 31 32 32 32 32 32 32 32 32 31 31 32 32 33 33 34 34 35 35 35 35 35 36 36 37 37 38 38 39 39 39 40 41 43 45 45 46 45 45 43 42 42 42 42 42 43 44
44 45 46 46 46 46 46 46 45 45 45 44 43 43 42 42 42 43 43 43 44 44 43 42 41 40 39 39 38 37 36 35 34 33 32 30 29 27 26 25 25 24 24 25 26 26 27 28 29 30 31 31 32 32 33 33 34 34 35 35 35 35 35 35 34 33 32 33 34 34 35 36 37 37 37 37 38 38 38 38 38 38 39 39 39 39 39 39 40 40 41 43 44 44 43 41 40 39 39 39 39 40 40
46 47 48 48 47 47 47 46 46 46 45 45 44 44 43 43 44 44 44 45 44 44 43 41 40 39 38 37 36 35 34 32 31 30 29 27 25 24 23 22 22 23 23 24 25 27 28 29 30 31 32 33 33 33 34 35 36 36 36 36 36 36 36 35 35 34 33 33 34 35 36 37 37 38 39 39 39 39 39 39 39 39 38 38 37 37 38 38 38 38 38 39 40 40 38 37 36 36 36 36 36 36 36
48 48 49 49 48 48 47 47 46 46 46 45 45 44 44 44 45 45 45 44 44 43 41 40 38 37 37 35 33 32 30 29 28 27 26 24 23 22 22 21 21 22 23 24 25 27 29 30 31 32 33 33 34 34 34 35 36 36 36 36 36 36 35 35 34 34 33 33 34 34 34 34 35 36 38 38 38 38 39 39 38 38 37 37 36 37 37 37 37 36 36 36 36 36 36 35 35 35 36 36 35 35 36
49 50 50 49 49 48 47 47 47 46 46 46 45 45 45 45 45 44 44 43 42 41 39 38 37 36 35 33 31 30 28 27 25 25 24 23 23 22 22 21 21 22 22 23 25 27 28 30 31 32 33 33 34 34 34 34 35 35 35 36 36 35 34 34 33 33 33 32 32 32 32 32 32 33 33 34 35 36 36 37 36 36 36 36 37 37 38 37 37 37 37 37 36 36 36 35 34 35 35 35 36 37 37
50 51 50 50 49 48 47 47 46 46 46 46 46 46 45 45 44 44 43 42 40 39 37 36 35 34 33 31 29 27 25 24 23 22 22 22 22 22 22 22 21 22 22 23 24 26 28 29 30 31 32 33 33 33 33 33 33 33 34 34 34 34 33 32 32 31 31 31 30 30 30 30 30 30 29 30 30 31 33 33 34 34 35 36 37 40 43 45 46 46 46 47 47 46 45 42 39 37 36 35 35 35 36
51 51 50 49 49 48 47 47 46 46 46 46 45 45 45 44 44 43 41 40 39 37 35 34 33 32 30 29 27 25 24 22 21 21 21 21 21 22 22 22 22 22 22 23 24 25 27 28 29 30 31 31 32 32 32 32 32 32 32 32 32 32 31 31 30 30 29 28 28 28 28 28 28 28 28 28 27 28 28 29 31 32 33 35 39 43 45 47 49 51 53 53 53 54 55 53 49 45 40 35 33 33 35
50 50 49 49 48 48 47 47 47 46 46 45 45 45 45 44 43 42 40 39 37 35 33 32 30 29 28 26 25 24 23 22 21 20 20 21 21 21 22 22 22 22 23 23 24 25 26 27 28 29 30 30 30 30 30 30 30 30 30 30 30 29 29 29 28 28 27 27 26 26 26 26 26 26 26 26 26 25 26 28 29 30 31 33 35 37 40 43 45 47 49 52 56 58 57 55 52 48 42 36 32 32 34
49 49 49 48 48 47 47 47 46 46 45 45 45 45 44 43 42 40 39 37 35 33 31 30 28 26 25 24 23 23 22 21 21 20 20 20 20 21 21 21 22 22 23 23 24 25 26 27 27 28 29 29 29 29 29 29 29 28 28 28 28 28 27 27 27 26 25 25 25 25 25 24 24 24 24 24 24 25 25 27 28 28 29 31 32 33 34 36 38 41 44 48 51 52 51 48 45 41 38 35 34 34 35
50 49 49 48 47 47 48 47 47 47 46 46 45 44 43 42 40 39 37 35 34 32 30 29 27 25 24 23 22 22 22 21 20 19 19 19 19 20 20 20 20 21 21 22 23 24 25 26 26 27 27 27 28 27 27 27 26 26 26 26 26 26 25 25 25 24 24 24 24 23 23 23 23 23 23 23 24 24 25 25 26 27 28 28 28 28 28 29 31 34 38 40 43 44 44 40 37 34 33 33 34 36 37
50 49 48 48 48 48 50 50 50 49 48 46 45 43 42 40 38 36 34 34 32 31 29 28 26 25 23 22 21 20 20 19 19 18 18 18 18 18 19 19 19 19 20 21 22 23 23 24 25 25 25 25 25 24 24 24 23 23 23 23 23 23 23 23 23 23 23 22 22 22 22 22 22 22 22 23 23 23 24 24 25 26 26 25 25 25 25 25 26 28 31 33 35 37 37 35 33 30 30 32 34 35 37
48 47 47 47 49 50 52 52 51 50 47 44 42 40 39 37 35 34 33 32 31 30 28 27 25 23 22 21 20 19 18 18 18 17 17 17 17 17 17 18 18 19 19 20 21 21 22 22 23 23 22 22 21 21 21 21 20 20 21 21 21 21 21 21 21 22 21 21 21 21 21 21 21 21 21 21 21 22 22 23 23 23 23 23 23 22 22 23 24 25 26 28 29 30 32 30 28 27 27 28 30 32 33
45 45 46 48 51 53 54 53 51 47 43 40 37 35 34 33 32 32 31 30 29 28 27 25 23 22 20 19 18 17 17 17 17 17 16 16 16 17 17 18 18 18 19 19 19 19 20 20 20 20 19 19 19 19 19 19 19 19 19 20 20 20 20 20 21 21 20 20 20 20 21 21 21 21 20 20 20 20 20 20 20 20 20 19 19 19 20 21 22 24 26 26 26 27 27 26 25 24 24 24 24 25 27
44 45 48 50 53 54 55 52 47 41 36 33 32 32 32 32 32 31 31 30 28 27 26 24 22 21 19 18 17 16 16 16 16 16 16 16 16 17 17 17 18 18 18 18 18 18 18 18 18 18 18 18 18 18 18 18 19 19 19 19 19 20 20 20 20 20 20 20 20 20 20 20 20 20 19 19 19 18 18 18 17 17 17 16 16 16 17 18 20 22 25 27 28 28 28 28 28 27 25 22 20 20 20
44 46 49 52 54 53 51 45 40 35 33 32 31 32 32 32 32 32 31 31 30 28 27 25 23 21 19 18 16 15 15 15 15 15 16 16 16 17 17 18 18 18 18 18 18 18 18 18 18 18 18 18 19 18 19 19 19 19 19 19 19 19 19 19 19 19 19 19 19 19 19 19 19 19 19 18 18 18 17 17 17 17 16 16 15 15 14 15 16 17 20 22 24 26 26 29 31 31 26 22 19 17 17
46 49 51 52 50 47 42 39 37 35 33 33 33 33 33 33 34 34 33 33 32 30 28 25 23 21 18 16 15 14 14 14 15 15 16 17 18 18 18 19 19 19 19 19 19 19 19 19 19 19 19 19 19 19 19 19 19 19 19 19 19 19 19 19 19 18 19 18 18 18 18 18 18 18 18 18 17 17 16 16 16 16 16 15 15 14 14 13 13 14 15 16 17 18 20 22 23 23 21 19 17 17 17
49 50 50 47 44 42 40 38 37 35 34 34 34 35 35 36 36 36 36 34 32 30 27 24 22 19 17 16 14 14 13 14 15 16 17 18 19 20 20 20 20 20 19 19 19 19 19 19 19 19 19 19 19 19 19 19 19 18 18 18 18 18 18 18 18 18 18 18 18 18 18 18 18 18 18 17 17 16 16 15 15 15 15 14 14 13 13 13 13 13 13 14 14 15 15 16 17 17 16 16 15 15 16
49 48 45 43 42 41 40 38 37 36 36 36 37 37 37 38 38 37 36 34 31 29 26 23 20 18 16 15 14 14 14 15 16 18 19 20 20 21 21 20 20 20 20 19 19 19 19 19 19 19 19 19 19 19 19 19 18 18 18 18 18 18 18 18 18 18 18 18 18 18 18 18 18 17 17 16 16 15 15 15 14 14 13 13 13 12 12 12 12 12 12 13 13 13 13 13 13 13 13 14 14 15 16
47 46 44 43 41 40 39 38 37 37 38 38 38 38 38 38 38 37 35 32 29 26 23 21 19 16 15 14 14 15 16 17 18 19 21 21 21 21 21 21 20 20 19 19 19 18 18 18 18 18 19 19 19 19 19 18 18 18 18 18 18 18 18 18 18 17 17 17 17 17 17 17 17 16 16 15 15 14 14 13 13 13 12 12 12 12 12 11 12 12 12 12 12 11 11 12 12 12 12 13 14 15 16
47 46 44 42 40 39 39 38 38 39 39 39 39 38 38 37 36 34 32 29 26 23 21 19 17 15 14 14 15 16 18 19 20 21 22 22 22 22 21 21 20 20 19 19 18 18 18 18 18 18 19 19 18 18 18 18 18 18 18 18 18 18 18 18 17 17 17 17 16 16 16 16 16 15 14 14 13 13 13 12 12 12 12 12 11 11 11 11 11 11 11 11 11 11 11 11 12 12 13 14 16 16 17
46 44 42 41 40 39 39 39 39 39 39 38 38 37 36 34 32 31 28 26 23 20 18 17 16 15 14 15 16 18 19 21 22 22 22 22 22 21 21 20 20 19 19 18 18 18 18 18 18 18 18 18 19 18 18 18 18 18 18 18 17 17 17 17 17 16 16 16 15 15 15 14 14 14 13 13 12 12 12 12 12 12 12 12 11 11 11 11 11 11 11 11 11 11 11 11 12 13 14 16 17 17 17
44 43 41 41 40 40 40 40 40 39 38 37 35 34 32 31 29 27 25 22 20 18 16 15 15 15 15 16 17 19 20 22 22 23 23 22 22 21 20 20 19 19 18 18 18 17 17 18 18 18 18 18 19 18 18 17 17 16 16 16 16 16 16 16 15 15 15 14 14 14 14 13 13 13 12 12 12 12 12 12 12 12 12 12 12 12 12 11 11 11 11 11 11 11 11 12 13 14 15 16 16 16 17
43 42 41 41 40 40 40 39 38 37 36 34 33 31 29 27 25 23 21 19 17 16 15 15 15 15 15 16 18 19 21 22 22 22 22 22 21 20 20 19 19 19 18 18 17 17 17 17 17 17 18 18 18 17 16 15 15 14 15 15 15 15 15 15 14 14 14 14 13 13 13 13 13 13 13 13 13 13 13 12 12 12 12 12 12 12 12 12 12 12 12 12 11 12 12 13 13 14 14 15 15 16 17
42 41 41 40 40 39 38 37 36 34 33 31 29 28 26 23 21 19 18 16 15 15 15 15 16 16 17 18 19 20 21 22 22 22 22 21 20 20 20 19 19 19 18 18 17 17 17 17 17 17 17 17 16 16 15 14 14 15 15 15 14 14 14 14 14 14 14 14 14 14 14 14 14 13 13 13 13 13 13 13 13 13 13 13 13 13 12 12 12 12 12 12 12 12 13 13 13 14 14 15 16 17 18
40 40 39 38 37 36 35 34 32 31 30 28 26 24 22 20 19 17 16 16 15 15 16 17 17 18 19 20 20 21 21 21 21 21 21 21 20 20 20 19 19 18 18 17 17 17 17 17 17 16 16 16 16 15 15 15 15 15 15 15 15 15 15 14 14 14 14 14 14 14 14 14 14 14 14 14 14 14 14 14 14 14 14 13 13 13 13 13 13 13 13 13 13 13 14 14 14 15 15 17 18 19 20
38 37 36 35 34 33 31 30 29 27 26 24 23 21 19 18 17 16 16 16 16 16 17 18 19 20 21 21 21 21 21 21 21 21 21 20 20 20 20 19 19 18 18 17 17 17 17 17 17 17 17 16 16 16 16 16 16 16 16 15 15 15 15 15 15 15 15 15 15 15 15 15 15 15 15 15 15 15 15 15 15 15 15 15 15 15 15 15 15 15 15 14 15 15 15 15 15 16 17 18 19 21 22
35 34 33 32 31 29 28 27 26 24 23 21 20 18 18 17 16 16 16 16 17 18 19 19 20 20 21 21 21 21 21 20 20 20 20 20 19 19 19 19 19 18 18 18 17 17 18 18 18 18 17 17 16 16 16 16 16 16 16 16 16 16 15 15 15 15 15 15 15 15 15 15 16 16 16 16 16 16 16 16 16 16 16 16 16 16 16 16 16 16 16 16 16 16 16 16 16 17 18 19 21 22 24
33 31 30 29 28 26 25 24 23 22 20 19 18 17 16 16 16 16 16 17 18 18 20 20 20 20 21 21 21 21 20 20 20 20 19 19 19 19 19 19 19 19 19 18 18 18 19 19 19 18 17 17 17 17 17 17 16 16 16 16 16 16 16 16 16 16 16 16 16 16 17 17 17 17 17 17 17 17 17 17 17 17 17 17 17 17 17 17 17 17 17 17 17 17 17 17 17 18 18 20 22 24 26
30 29 28 26 25 24 23 22 21 20 18 17 16 16 16 16 16 16 17 17 18 19 20 21 21 21 21 21 21 21 20 20 20 19 19 19 19 19 19 19 19 19 20 19 19 19 19 19 19 18 18 17 17 17 17 17 17 17 17 17 17 17 17 17 17 17 17 17 17 18 18 18 18 18 18 18 18 18 18 18 18 18 18 18 18 18 18 18 18 18 18 18 18 18 18 18 18 18 19 20 22 25 27
28 27 25 24 24 23 22 20 19 18 17 16 16 16 15 16 16 17 17 18 18 19 20 20 21 21 21 21 21 21 20 20 20 19 19 19 19 20 20 20 20 21 21 21 20 20 20 20 19 19 18 18 18 18 18 18 18 18 18 18 18 18 18 18 18 18 19 19 19 19 19 19 19 19 19 19 19 19 19 19 19 19 19 19 19 19 18 18 18 18 18 18 18 18 18 18 18 19 19 21 24 26 28
26 25 24 23 22 21 20 19 18 17 17 16 16 16 16 16 17 17 18 18 19 19 20 20 21 21 21 21 21 21 20 20 20 20 19 20 20 20 21 21 22 22 21 21 21 21 21 21 20 20 19 20 20 19 19 19 19 19 19 19 19 19 19 19 19 19 19 19 19 20 20 20 19 20 20 20 20 20 19 19 19 19 19 19 19 19 19 19 19 18 18 18 18 18 18 19 19 19 20 22 24 25 27
26 24 23 22 21 19 18 18 18 18 17 18 17 17 17 18 18 18 19 19 19 20 20 21 21 21 21 21 21 21 21 20 20 20 20 21 21 21 21 21 22 22 22 21 21 21 21 21 21 21 20 20 20 20 20 20 20 20 20 20 20 20 20 20 20 20 20 20 20 20 20 20 20 20 20 20 20 20 19 19 19 19 19 19 19 19 19 18 18 18 18 18 18 18 18 18 19 19 20 21 23 24 25
25 23 22 20 19 18 18 18 18 18 18 18 18 18 18 18 19 19 19 19 20 20 20 21 21 21 21 21 21 21 21 21 21 22 22 21 21 21 21 21 21 22 22 21 21 21 22 22 22 21 21 21 21 20 20 21 21 20 20 20 20 20 20 20 20 20 20 20 20 19 19 19 20 20 19 19 19 19 19 19 19 19 19 18 18 18 18 18 18 18 17 17 17 18 18 18 18 18 19 20 21 22 23
23 22 20 19 19 18 19 19 20 20 20 19 19 19 19 19 19 19 20 20 20 20 20 21 20 20 21 21 21 22 22 23 23 23 23 22 21 21 20 20 20 21 21 22 22 22 22 22 22 22 21 21 21 21 21 21 21 21 20 20 20 20 20 20 20 20 20 19 19 19 19 19 19 19 19 18 18 18 18 18 18 17 17 17 17 17 16 16 16 16 16 16 16 16 17 17 17 17 18 18 19 20 21
23 21 20 20 20 20 20 21 21 21 21 20 20 20 20 20 20 20 20 20 20 20 20 20 20 21 21 22 22 23 23 24 24 24 23 22 21 20 20 19 19 19 19 20 21 22 22 23 23 22 22 22 21 21 21 21 21 20 20 20 20 20 20 20 20 19 19 19 18 18 18 18 18 18 18 17 17 17 16 16 16 15 15 15 15 15 14 15 14 14 14 15 15 15 16 16 16 16 16 16 16 17 18
22 22 21 21 21 22 22 22 22 22 22 22 21 21 21 21 20 20 20 20 20 20 20 20 21 21 22 23 24 24 24 24 24 23 22 21 21 20 19 19 19 19 20 21 21 22 23 23 24 23 23 23 22 21 21 21 21 20 20 19 20 20 19 19 19 19 18 18 18 18 18 17 17 17 17 16 16 15 15 14 14 14 14 13 13 13 13 13 13 13 13 14 14 14 15 15 15 15 15 15 15 15 15
23 23 23 23 23 23 23 23 23 23 23 22 22 22 22 21 21 20 20 20 20 20 20 21 22 22 23 24 24 25 24 24 23 22 21 21 20 20 19 19 20 20 21 21 22 23 23 24 24 24 24 23 23 22 21 20 20 20 20 20 19 19 19 19 18 18 18 18 17 17 17 16 16 16 15 15 14 14 14 13 13 13 13 13 13 13 12 13 13 13 13 14 14 14 14 15 15 15 15 14 14 14 14
25 25 25 24 24 24 24 25 25 25 24 24 23 22 22 21 20 20 20 20 20 21 21 22 23 23 24 24 24 24 24 23 22 21 21 20 20 20 20 20 21 21 22 22 23 23 24 24 24 24 24 24 23 22 21 20 20 19 20 20 20 20 19 19 18 18 18 17 17 17 16 16 15 15 15 14 14 13 13 13 13 12 12 13 13 13 13 13 13 13 13 14 14 14 14 14 14 14 14 14 14 14 14